This demonstration page uses our WeatherBlox Daily Observations layout. Learn more.

Left ArrowRight Arrow

Hourly Observations for October 22, 2016

Temp ( °F °C ) Dew Point ( °F °C ) Humidity (%) Winds ( mph kmh ) Pressure ( in mb ) Visibility ( mi km ) Precip ( " mm )
12:15 am 00:15 Cloudy 55 13 50 10 82 82 NNW 18 30 29.65 1004 10 16 N/A
12:35 am 00:35 Cloudy 55 13 48 9 77 77 NNW 15 24 29.65 1004 10 16 N/A
12:55 am 00:55 Cloudy 55 13 48 9 77 77 NNW 15 24 29.65 1004 10 16 N/A
1:15 am 01:15 Cloudy 54 12 48 9 82 82 NW 23 37 29.65 1004 10 16 N/A
1:35 am 01:35 Cloudy 54 12 46 8 77 77 NW 23 37 29.65 1004 10 16 N/A
1:55 am 01:55 Cloudy 54 12 46 8 77 77 NNW 22 35 29.65 1004 10 16 N/A
2:15 am 02:15 Cloudy 54 12 46 8 77 77 NW 18 30 29.65 1004 10 16 N/A
2:35 am 02:35 Cloudy 54 12 46 8 77 77 NW 18 30 29.65 1004 10 16 N/A
2:55 am 02:55 Cloudy 54 12 45 7 72 72 NNW 17 28 29.65 1004 10 16 N/A
3:15 am 03:15 Cloudy 54 12 45 7 72 72 NNW 18 30 29.65 1004 10 16 N/A
3:35 am 03:35 Cloudy 54 12 45 7 72 72 NW 14 22 29.65 1004 10 16 N/A
3:55 am 03:55 Cloudy 54 12 45 7 72 72 NNW 21 33 29.65 1004 10 16 N/A
4:15 am 04:15 Cloudy 54 12 45 7 72 72 NNW 23 37 29.65 1004 10 16 N/A
4:35 am 04:35 Cloudy 54 12 45 7 72 72 NW 22 35 29.65 1004 10 16 N/A
4:55 am 04:55 Cloudy 54 12 45 7 72 72 NNW 26 43 29.65 1004 10 16 N/A
5:15 am 05:15 Cloudy with Drizzle 52 11 46 8 82 82 NW 20 31 29.68 1005 10 16 N/A
5:35 am 05:35 Cloudy with Drizzle 52 11 45 7 77 77 NW 21 33 29.68 1005 10 16 N/A
5:55 am 05:55 Cloudy 54 12 45 7 72 72 NW 20 31 29.68 1005 10 16 N/A
6:15 am 06:15 Cloudy 54 12 45 7 72 72 NW 24 39 29.68 1005 10 16 N/A
6:35 am 06:35 Cloudy 54 12 43 6 67 67 NW 23 37 29.68 1005 10 16 N/A
6:55 am 06:55 Cloudy with Light Rain 52 11 45 7 77 77 NW 24 39 29.68 1005 10 16 N/A
7:15 am 07:15 Cloudy 52 11 43 6 72 72 WNW 21 33 29.68 1005 10 16 N/A
7:35 am 07:35 Cloudy 52 11 43 6 72 72 WNW 22 35 29.68 1005 10 16 N/A
7:55 am 07:55 Cloudy 52 11 41 5 67 67 WNW 21 33 29.71 1006 10 16 N/A
8:15 am 08:15 Cloudy 52 11 41 5 67 67 NW 29 46 29.71 1006 10 16 N/A
8:35 am 08:35 Mostly Cloudy 52 11 39 4 62 62 NW 21 33 29.71 1006 10 16 N/A
8:55 am 08:55 Partly Cloudy 52 11 37 3 58 58 NW 21 33 29.71 1006 10 16 N/A
9:15 am 09:15 Partly Cloudy 52 11 37 3 58 58 WNW 26 43 29.74 1007 10 16 N/A
9:35 am 09:35 Partly Cloudy 52 11 37 3 58 58 NW 24 39 29.74 1007 10 16 N/A
9:55 am 09:55 Sunny 52 11 37 3 58 58 NW 28 44 29.74 1007 10 16 N/A
10:15 am 10:15 Sunny 54 12 37 3 54 54 NW 30 48 29.74 1007 10 16 N/A
10:35 am 10:35 Partly Cloudy 54 12 37 3 54 54 WNW 31 50 29.74 1007 10 16 N/A
10:55 am 10:55 Partly Cloudy 55 13 37 3 51 51 NW 29 46 29.77 1008 10 16 N/A
11:15 am 11:15 Partly Cloudy 54 12 37 3 54 54 NW 32 52 29.77 1008 10 16 N/A
11:35 am 11:35 Partly Cloudy 55 13 37 3 51 51 WNW 18 30 29.77 1008 10 16 N/A
11:55 am 11:55 Partly Cloudy 55 13 37 3 51 51 WNW 30 48 29.77 1008 10 16 N/A
12:15 pm 12:15 Sunny 57 14 36 2 44 44 NW 29 46 29.77 1008 10 16 N/A
12:35 pm 12:35 Sunny 57 14 37 3 48 48 NW 29 46 29.77 1008 10 16 N/A
12:55 pm 12:55 Partly Cloudy 59 15 37 3 45 45 WNW 32 52 29.77 1008 10 16 N/A
1:15 pm 13:15 Partly Cloudy 59 15 37 3 45 45 NW 31 50 29.74 1007 10 16 N/A
1:35 pm 13:35 Partly Cloudy 57 14 37 3 48 48 WNW 28 44 29.77 1008 10 16 N/A
1:55 pm 13:55 Partly Cloudy 59 15 37 3 45 45 NW 26 43 29.77 1008 10 16 N/A
2:15 pm 14:15 Mostly Cloudy 59 15 41 5 51 51 WNW 26 43 29.77 1008 10 16 N/A
2:35 pm 14:35 Mostly Cloudy 59 15 39 4 48 48 NW 23 37 29.74 1007 10 16 N/A
2:55 pm 14:55 Cloudy 59 15 41 5 51 51 W 32 52 29.77 1008 10 16 N/A
3:15 pm 15:15 Cloudy 59 15 39 4 48 48 WNW 24 39 29.77 1008 10 16 N/A
3:35 pm 15:35 Mostly Cloudy 59 15 39 4 48 48 WNW 26 43 29.77 1008 10 16 N/A
3:55 pm 15:55 Mostly Cloudy 57 14 37 3 48 48 WNW 29 46 29.77 1008 10 16 N/A
4:15 pm 16:15 Mostly Cloudy 55 13 37 3 51 51 WNW 23 37 29.80 1009 10 16 N/A
4:35 pm 16:35 Mostly Cloudy 55 13 37 3 51 51 WNW 24 39 29.80 1009 10 16 N/A
4:55 pm 16:55 Mostly Cloudy 55 13 37 3 51 51 WNW 21 33 29.80 1009 10 16 N/A
5:15 pm 17:15 Mostly Cloudy 55 13 37 3 51 51 WNW 23 37 29.80 1009 10 16 N/A
5:35 pm 17:35 Mostly Cloudy 54 12 37 3 54 54 W 24 39 29.83 1010 10 16 N/A
5:55 pm 17:55 Mostly Cloudy 54 12 37 3 54 54 WNW 22 35 29.83 1010 10 16 N/A
6:15 pm 18:15 Partly Cloudy 52 11 36 2 54 54 WNW 26 43 29.83 1010 10 16 N/A
6:35 pm 18:35 Partly Cloudy 52 11 36 2 54 54 WNW 21 33 29.85 1011 10 16 N/A
6:55 pm 18:55 Mostly Cloudy 52 11 36 2 54 54 WNW 15 24 29.85 1011 10 16 N/A
7:15 pm 19:15 Cloudy 52 11 36 2 54 54 WNW 15 24 29.88 1012 10 16 N/A
7:35 pm 19:35 Cloudy 52 11 36 2 54 54 WNW 14 22 29.88 1012 10 16 N/A
7:55 pm 19:55 Cloudy 52 11 36 2 54 54 W 14 22 29.88 1012 10 16 N/A
8:15 pm 20:15 Mostly Cloudy 52 11 34 1 50 50 WNW 17 28 29.88 1012 10 16 N/A
8:35 pm 20:35 Partly Cloudy 50 10 34 1 54 54 NW 16 26 29.88 1012 10 16 N/A
8:55 pm 20:55 Clear 50 10 34 1 54 54 WNW 16 26 29.91 1013 10 16 N/A
9:15 pm 21:15 Clear 50 10 32 undefined 50 50 NW 18 30 29.91 1013 10 16 N/A
9:35 pm 21:35 Clear 50 10 32 undefined 50 50 NW 22 35 29.91 1013 10 16 N/A
9:55 pm 21:55 Clear 50 10 32 undefined 50 50 WNW 15 24 29.91 1013 10 16 N/A
10:15 pm 22:15 Clear 50 10 32 undefined 50 50 WNW 14 22 29.94 1014 10 16 N/A
10:35 pm 22:35 Clear 50 10 32 undefined 50 50 WNW 13 20 29.94 1014 10 16 N/A
10:55 pm 22:55 Clear 50 10 32 undefined 50 50 WNW 12 19 29.94 1014 10 16 N/A
11:15 pm 23:15 Clear 50 10 32 undefined 50 50 WNW 20 31 29.94 1014 10 16 N/A
11:35 pm 23:35 Clear 50 10 34 1 54 54 WNW 13 20 29.94 1014 10 16 N/A
11:55 pm 23:55 Clear 50 10 34 1 54 54 W 7 11 29.94 1014 10 16 N/A

Powered by AerisWeather